Location: Key Biscayne
(25.6930°N, 80.1630°W)
Time: 03:45:13
(UTC-04:00)

Tiangong 2 - Visible Passes

Search period start: 25 June 2018 00:00
Search period end: 05 July 2018 00:00
Orbit: 385 x 396 km, 42.8° (Epoch: 25 June)

Date Brightness Start Highest point End Pass type
(mag) Time Alt. Az. Time Alt. Az. Time Alt. Az.
25 Jun 1.3 04:51:29 62° NNW 04:51:29 62° NNW 04:54:37 10° NE visible
26 Jun 4.3 03:56:31 14° ENE 03:56:31 14° ENE 03:57:03 10° ENE visible
26 Jun 3.5 05:28:58 10° WNW 05:30:58 15° NNW 05:32:58 10° NNE visible
27 Jun 3.0 04:33:50 24° NNW 04:33:50 24° NNW 04:36:01 10° NNE visible
29 Jun 4.0 04:15:58 13° N 04:15:58 13° N 04:16:56 10° N visible
